| time (UTC) | temp F | wind direction | speed knots | gust knots | rain 1hr in | rain 24hr in | rain mn in | humidity % | barometer mb |
| 20260505152227 | 77 | 283 | 3.5 | 6.1 | 0.00 | 7.80 | 2.43 | 46 | 1009.3 |
| 20260505151727 | 78 | 268 | 0.0 | 6.1 | 0.00 | 7.80 | 2.43 | 48 | 1008.9 |
| 20260505151227 | 78 | 236 | 0.0 | 0.0 | 0.00 | 7.80 | 2.43 | 50 | 1009.0 |
| 20260505150727 | 78 | 203 | 1.7 | 13.0 | 0.00 | 7.80 | 2.43 | 48 | 1009.2 |
| 20260505150227 | 78 | 226 | 0.9 | 6.1 | 0.00 | 7.80 | 2.43 | 44 | 1008.7 |
| 20260505140226 | 76 | 227 | 0.9 | 6.1 | 0.00 | 7.80 | 2.43 | 47 | 1009.1 |
| 20260505130225 | 77 | 153 | 0.0 | 0.0 | 0.00 | 7.80 | 2.43 | 55 | 1009.3 |
| 20260505124725 | 77 | 272 | 0.0 | 6.1 | 0.00 | 7.80 | 2.43 | 47 | 1009.4 |
| 20260505124225 | 76 | 227 | 0.9 | 6.1 | 0.00 | 7.80 | 2.43 | 52 | 1009.3 |
| 20260505123725 | 76 | 294 | 0.0 | 0.0 | 0.00 | 7.80 | 2.43 | 53 | 1009.3 |
| 20260505123225 | 75 | 247 | 0.0 | 0.0 | 0.00 | 7.80 | 2.43 | 50 | 1009.4 |
| 20260505122725 | 75 | 236 | 0.0 | 0.0 | 0.00 | 7.80 | 2.43 | 54 | 1009.4 |
| 20260505122225 | 75 | 265 | 0.0 | 0.0 | 0.00 | 7.80 | 2.43 | 57 | 1009.5 |
| 20260505121725 | 74 | 228 | 0.0 | 6.1 | 0.00 | 7.80 | 2.43 | 53 | 1009.6 |
| 20260505121336 | 74 | 334 | 0.0 | 0.0 | 0.00 | 7.80 | 2.43 | 50 | 1009.6 |
| 20260505121225 | 74 | 334 | 0.0 | 0.0 | 0.00 | 7.80 | 2.43 | 50 | 1009.6 |
| 20260505120724 | 74 | 234 | 0.0 | 6.1 | 0.00 | 7.80 | 2.43 | 51 | 1009.7 |
| 20260505120224 | 73 | 236 | 0.0 | 0.0 | 0.00 | 7.80 | 2.43 | 57 | 1009.7 |
| 20260505115724 | 73 | 224 | 0.0 | 0.0 | 0.00 | 7.80 | 2.43 | 54 | 1009.9 |
| 20260505115224 | 73 | 199 | 0.0 | 0.0 | 0.00 | 7.80 | 2.43 | 57 | 1009.8 |
| 20260505114724 | 73 | 260 | 3.5 | 6.1 | 0.00 | 7.80 | 2.43 | 54 | 1009.7 |
| 20260505114224 | 73 | 279 | 0.0 | 6.1 | 0.00 | 7.80 | 2.43 | 59 | 1009.7 |
| 20260505113724 | 72 | 258 | 0.0 | 6.1 | 0.00 | 7.80 | 2.43 | 60 | 1009.7 |
| 20260505113224 | 72 | 242 | 0.0 | 0.0 | 0.00 | 7.80 | 2.43 | 62 | 1009.7 |
| 20260505112724 | 71 | 256 | 0.0 | 6.1 | 0.00 | 7.80 | 2.43 | 59 | 1010.1 |
| 20260505112224 | 71 | 269 | 0.0 | 0.0 | 0.00 | 7.80 | 2.43 | 61 | 1010.0 |
| 20260505111724 | 70 | 252 | 0.0 | 0.0 | 0.00 | 7.80 | 2.43 | 61 | 1009.9 |
| 20260505111224 | 69 | 208 | 1.7 | 6.1 | 0.00 | 7.80 | 2.43 | 62 | 1010.0 |
| 20260505110724 | 69 | 230 | 0.0 | 0.0 | 0.00 | 7.80 | 2.43 | 67 | 1010.0 |
| 20260505110224 | 68 | 225 | 0.0 | 0.0 | 0.00 | 7.80 | 2.43 | 68 | 1010.3 |
| 20260505101723 | 66 | 235 | 0.0 | 0.0 | 0.00 | 7.80 | 2.43 | 73 | 1010.0 |
| 20260505101223 | 65 | 298 | 0.0 | 6.1 | 0.00 | 7.80 | 2.43 | 71 | 1010.2 |
| 20260505100723 | 65 | 301 | 0.0 | 0.0 | 0.00 | 7.80 | 2.43 | 73 | 1010.1 |
| 20260505100223 | 64 | 237 | 0.0 | 0.0 | 0.00 | 7.80 | 2.43 | 76 | 1010.0 |
| 20260505095723 | 64 | 233 | 0.0 | 0.0 | 0.00 | 7.80 | 2.43 | 76 | 1010.1 |
| 20260505095223 | 64 | 284 | 0.0 | 0.0 | 0.00 | 7.80 | 2.43 | 79 | 1010.2 |
| 20260505094723 | 64 | 247 | 0.0 | 0.0 | 0.00 | 7.80 | 2.43 | 79 | 1010.1 |
| 20260505094223 | 63 | 262 | 0.0 | 6.1 | 0.00 | 7.80 | 2.43 | 79 | 1010.3 |
| 20260505093723 | 63 | 244 | 0.0 | 0.0 | 0.00 | 7.80 | 2.43 | 82 | 1010.2 |
| 20260505093223 | 63 | 277 | 0.0 | 0.0 | 0.00 | 7.80 | 2.43 | 80 | 1010.3 |
| 20260505092723 | 63 | 253 | 0.0 | 0.0 | 0.00 | 7.80 | 2.43 | 77 | 1010.0 |
| 20260505092223 | 62 | 227 | 0.0 | 6.1 | 0.00 | 7.80 | 2.43 | 76 | 1010.1 |
| 20260505091722 | 62 | 260 | 0.0 | 0.0 | 0.00 | 7.80 | 2.43 | 77 | 1010.3 |
| 20260505091222 | 62 | 8 | 0.0 | 0.0 | 0.00 | 7.80 | 2.43 | 82 | 1010.3 |
| 20260505090722 | 62 | 25 | 0.0 | 6.1 | 0.00 | 7.80 | 2.43 | 85 | 1010.3 |
| 20260505090222 | 61 | 292 | 0.0 | 0.0 | 0.00 | 7.80 | 2.43 | 84 | 1010.0 |
| 20260505085722 | 61 | 270 | 0.0 | 6.1 | 0.00 | 7.80 | 2.43 | 82 | 1010.1 |
| 20260505085222 | 61 | 273 | 0.0 | 0.0 | 0.00 | 7.80 | 2.43 | 85 | 1010.0 |
| 20260505084722 | 60 | 277 | 0.0 | 0.0 | 0.00 | 7.80 | 2.43 | 87 | 1009.9 |
| 20260505084222 | 60 | 277 | 0.0 | 0.0 | 0.00 | 7.80 | 2.43 | 87 | 1009.9 |
| 20260505083722 | 60 | 260 | 0.0 | 0.0 | 0.00 | 7.80 | 2.43 | 89 | 1010.0 |
| 20260505083222 | 60 | 275 | 0.0 | 0.0 | 0.00 | 7.80 | 2.43 | 89 | 1010.2 |
| 20260505082722 | 60 | 297 | 0.0 | 0.0 | 0.00 | 7.80 | 2.43 | 88 | 1009.9 |
| 20260505082222 | 60 | 252 | 0.0 | 0.0 | 0.00 | 7.80 | 2.43 | 89 | 1010.1 |
| 20260505081722 | 60 | 291 | 0.0 | 6.1 | 0.00 | 7.80 | 2.43 | 90 | 1010.1 |
| 20260505081222 | 59 | 228 | 0.0 | 0.0 | 0.00 | 7.80 | 2.43 | 91 | 1009.9 |
| 20260505080722 | 59 | 269 | 0.0 | 0.0 | 0.00 | 7.80 | 2.43 | 92 | 1009.9 |
| 20260505080222 | 59 | 246 | 0.0 | 0.0 | 0.00 | 7.80 | 2.43 | 93 | 1009.9 |
| 20260505075722 | 58 | 300 | 0.0 | 0.0 | 0.00 | 7.80 | 2.43 | 93 | 1009.7 |
| 20260505075221 | 58 | 264 | 0.0 | 0.0 | 0.00 | 7.80 | 2.43 | 93 | 1009.9 |
| 20260505074721 | 58 | 257 | 0.9 | 6.1 | 0.00 | 7.80 | 2.43 | 93 | 1009.8 |
| 20260505074221 | 58 | 284 | 0.0 | 0.0 | 0.00 | 7.80 | 2.43 | 93 | 1010.1 |
| 20260505073721 | 58 | 279 | 0.0 | 0.0 | 0.00 | 7.80 | 2.43 | 93 | 1009.8 |
| 20260505073221 | 58 | 282 | 2.6 | 6.1 | 0.00 | 7.80 | 2.43 | 94 | 1009.8 |
| 20260505072721 | 58 | 280 | 2.6 | 6.1 | 0.00 | 7.80 | 2.43 | 94 | 1009.8 |
| 20260505072221 | 58 | 256 | 0.0 | 0.0 | 0.00 | 7.80 | 2.43 | 95 | 1009.9 |
| 20260505071721 | 58 | 255 | 0.9 | 6.1 | 0.00 | 7.80 | 2.43 | 95 | 1009.9 |
| 20260505071221 | 58 | 255 | 0.9 | 6.1 | 0.00 | 7.80 | 2.43 | 95 | 1009.9 |
| 20260505070721 | 58 | 279 | 0.0 | 0.0 | 0.00 | 7.80 | 2.43 | 95 | 1009.6 |
| 20260505070221 | 58 | 223 | 0.0 | 6.1 | 0.00 | 7.80 | 2.43 | 95 | 1009.9 |
| 20260505065721 | 58 | 243 | 0.0 | 0.0 | 0.00 | 7.80 | 2.43 | 95 | 1009.8 |
| 20260505065221 | 57 | 275 | 0.0 | 0.0 | 0.00 | 7.80 | 2.43 | 95 | 1009.5 |
| 20260505064721 | 57 | 239 | 0.0 | 0.0 | 0.00 | 7.80 | 2.43 | 96 | 1009.5 |
| 20260505064221 | 57 | 266 | 4.3 | 6.1 | 0.00 | 7.80 | 2.43 | 96 | 1009.7 |
| 20260505063721 | 57 | 172 | 0.0 | 0.0 | 0.00 | 7.80 | 2.43 | 96 | 1009.3 |
| 20260505063221 | 57 | 274 | 0.0 | 0.0 | 0.00 | 7.80 | 2.43 | 96 | 1009.4 |
| 20260505062720 | 57 | 269 | 0.0 | 0.0 | 0.00 | 7.80 | 2.43 | 96 | 1009.5 |
| 20260505062220 | 57 | 266 | 0.0 | 0.0 | 0.00 | 7.80 | 2.43 | 96 | 1009.0 |
| 20260505061720 | 57 | 289 | 0.0 | 0.0 | 0.00 | 7.80 | 2.43 | 96 | 1009.3 |
| 20260505061220 | 57 | 274 | 0.0 | 0.0 | 0.00 | 7.80 | 2.43 | 96 | 1009.1 |
| 20260505060720 | 57 | 10 | 0.0 | 0.0 | 0.00 | 7.80 | 2.43 | 96 | 1009.3 |
| 20260505060220 | 57 | 275 | 0.0 | 0.0 | 0.00 | 7.80 | 2.43 | 96 | 1009.1 |
| 20260505055720 | 57 | 263 | 0.0 | 0.0 | 0.00 | 7.80 | 2.43 | 96 | 1009.3 |
| 20260505055220 | 57 | 273 | 0.0 | 0.0 | 0.00 | 7.80 | 2.43 | 96 | 1009.2 |
| 20260505054720 | 56 | 262 | 0.0 | 0.0 | 0.00 | 7.80 | 2.43 | 96 | 1009.2 |
| 20260505054220 | 56 | 275 | 0.0 | 0.0 | 0.00 | 7.80 | 2.43 | 96 | 1009.1 |
| 20260505053720 | 56 | 260 | 0.0 | 0.0 | 0.00 | 7.80 | 2.43 | 96 | 1009.2 |
| 20260505053220 | 55 | 264 | 0.0 | 0.0 | 0.00 | 7.80 | 2.43 | 96 | 1008.9 |
| 20260505052720 | 55 | 269 | 0.0 | 0.0 | 0.00 | 7.80 | 2.43 | 96 | 1008.7 |
| 20260505052220 | 55 | 268 | 0.0 | 0.0 | 0.00 | 7.80 | 2.43 | 96 | 1008.8 |
| 20260505051720 | 55 | 268 | 0.0 | 0.0 | 0.00 | 7.80 | 2.43 | 96 | 1008.9 |
| 20260505051220 | 55 | 267 | 0.0 | 0.0 | 0.00 | 7.80 | 2.43 | 96 | 1008.7 |
| 20260505050719 | 55 | 263 | 0.0 | 0.0 | 0.00 | 7.80 | 2.43 | 96 | 1008.7 |
| 20260505050219 | 55 | 265 | 0.0 | 0.0 | 0.00 | 7.80 | 2.43 | 96 | 1008.8 |
| 20260505041719 | 55 | 243 | 0.0 | 0.0 | 0.00 | 7.80 | 2.43 | 95 | 1008.7 |
| 20260505041219 | 55 | 272 | 0.0 | 0.0 | 0.00 | 7.80 | 2.43 | 95 | 1008.7 |
| 20260505040719 | 55 | 258 | 0.0 | 0.0 | 0.00 | 7.80 | 2.43 | 95 | 1008.7 |
| 20260505040219 | 55 | 265 | 0.0 | 0.0 | 0.00 | 7.80 | 2.43 | 95 | 1008.8 |
| 20260505035719 | 55 | 272 | 0.0 | 0.0 | 0.00 | 7.80 | 2.43 | 95 | 1008.6 |
| 20260505035218 | 55 | 266 | 0.0 | 0.0 | 0.00 | 7.80 | 2.43 | 95 | 1008.7 |
| 20260505034718 | 55 | 268 | 0.0 | 0.0 | 0.00 | 7.80 | 2.43 | 95 | 1008.6 |
| 20260505034218 | 55 | 272 | 0.0 | 0.0 | 0.00 | 7.80 | 2.43 | 95 | 1008.8 |
| 20260505033718 | 55 | 273 | 0.0 | 0.0 | 0.00 | 7.80 | 2.43 | 95 | 1008.9 |
| 20260505033218 | 55 | 267 | 0.0 | 0.0 | 0.00 | 7.80 | 2.43 | 95 | 1008.5 |
| 20260505032718 | 55 | 298 | 0.0 | 0.0 | 0.00 | 7.80 | 2.43 | 95 | 1008.5 |
| 20260505032218 | 55 | 298 | 0.0 | 0.0 | 0.00 | 7.80 | 2.43 | 95 | 1008.5 |
| 20260505031718 | 55 | 268 | 0.0 | 0.0 | 0.00 | 7.80 | 2.43 | 95 | 1008.5 |
| 20260505031218 | 55 | 258 | 0.0 | 0.0 | 0.00 | 7.80 | 2.43 | 95 | 1008.4 |
| 20260505030718 | 55 | 286 | 0.0 | 0.0 | 0.00 | 7.80 | 2.43 | 95 | 1008.5 |
| 20260505030218 | 55 | 313 | 0.0 | 0.0 | 0.00 | 7.80 | 2.43 | 95 | 1008.5 |
| 20260505025718 | 55 | 353 | 0.0 | 0.0 | 0.00 | 7.80 | 2.43 | 95 | 1008.7 |
| 20260505025218 | 55 | 269 | 0.0 | 0.0 | 0.00 | 7.80 | 2.43 | 95 | 1008.4 |
| 20260505024718 | 55 | 282 | 0.0 | 0.0 | 0.00 | 7.80 | 2.43 | 95 | 1008.6 |
| 20260505024218 | 55 | 252 | 0.0 | 0.0 | 0.00 | 7.80 | 2.43 | 95 | 1008.7 |
| 20260505023717 | 55 | 252 | 0.0 | 0.0 | 0.00 | 7.80 | 2.43 | 95 | 1008.7 |
| 20260505023217 | 55 | 272 | 0.0 | 0.0 | 0.00 | 7.80 | 2.43 | 95 | 1008.7 |
| 20260505022717 | 55 | 342 | 0.0 | 0.0 | 0.00 | 7.80 | 2.43 | 95 | 1008.8 |
| 20260505022217 | 56 | 275 | 0.0 | 0.0 | 0.00 | 7.80 | 2.43 | 95 | 1008.9 |
| 20260505021717 | 56 | 272 | 0.0 | 0.0 | 0.00 | 7.80 | 2.43 | 95 | 1009.0 |
| 20260505021217 | 56 | 261 | 0.0 | 0.0 | 1.80 | 7.80 | 2.43 | 95 | 1008.7 |
| 20260505020717 | 56 | 269 | 0.0 | 0.0 | 1.80 | 7.80 | 2.43 | 95 | 1008.9 |
| 20260505020217 | 56 | 271 | 0.0 | 0.0 | 0.00 | 7.50 | 2.40 | 95 | 1009.1 |
| 20260505015717 | 56 | 270 | 0.0 | 0.0 | 0.00 | 7.50 | 2.40 | 95 | 1008.8 |
| 20260505015217 | 56 | 282 | 0.0 | 0.0 | 0.00 | 7.50 | 2.40 | 95 | 1008.9 |
| 20260505014717 | 56 | 341 | 0.0 | 0.0 | 0.00 | 7.50 | 2.40 | 95 | 1008.8 |
| 20260505014217 | 56 | 290 | 0.0 | 0.0 | 0.00 | 7.50 | 2.40 | 95 | 1008.9 |
| 20260505013717 | 56 | 280 | 0.0 | 0.0 | 0.00 | 7.50 | 2.40 | 95 | 1008.8 |
| 20260505013217 | 56 | 261 | 0.0 | 0.0 | 0.00 | 7.50 | 2.40 | 95 | 1008.8 |
| 20260505012717 | 56 | 279 | 0.0 | 0.0 | 1.80 | 7.50 | 2.40 | 95 | 1008.6 |
| 20260505012217 | 56 | 254 | 0.0 | 0.0 | 1.80 | 7.50 | 2.40 | 95 | 1008.9 |
| 20260505011716 | 56 | 305 | 0.0 | 0.0 | 0.00 | 7.20 | 2.37 | 95 | 1009.1 |
| 20260505011216 | 56 | 247 | 0.0 | 0.0 | 1.80 | 7.20 | 2.37 | 95 | 1009.0 |
| 20260505010716 | 56 | 247 | 0.0 | 0.0 | 1.80 | 7.20 | 2.37 | 95 | 1009.0 |
| 20260505010216 | 56 | 267 | 0.0 | 0.0 | 3.60 | 7.20 | 2.37 | 95 | 1008.9 |
| 20260505005716 | 56 | 295 | 0.0 | 0.0 | 3.60 | 6.90 | 2.34 | 95 | 1009.0 |
| 20260505005216 | 56 | 41 | 0.0 | 6.1 | 0.00 | 6.30 | 2.28 | 95 | 1008.9 |
| 20260505004716 | 56 | 310 | 0.0 | 0.0 | 0.00 | 6.30 | 2.28 | 95 | 1009.1 |
| 20260505004216 | 56 | 267 | 0.0 | 0.0 | 1.80 | 6.30 | 2.28 | 95 | 1008.8 |
| 20260505003716 | 55 | 261 | 0.0 | 6.1 | 1.80 | 6.30 | 2.28 | 95 | 1009.0 |
| 20260505003216 | 55 | 279 | 0.0 | 0.0 | 0.00 | 6.00 | 2.25 | 95 | 1008.9 |
| 20260505002716 | 55 | 26 | 0.0 | 0.0 | 0.00 | 6.00 | 2.25 | 95 | 1009.1 |
| 20260505002216 | 55 | 0 | 0.0 | 6.1 | 0.00 | 6.00 | 2.25 | 95 | 1009.0 |
| 20260505001716 | 55 | 282 | 0.0 | 0.0 | 0.00 | 6.00 | 2.25 | 95 | 1009.0 |
| 20260505001216 | 55 | 260 | 0.0 | 0.0 | 0.00 | 6.00 | 2.25 | 95 | 1009.3 |
| 20260505000716 | 55 | 273 | 0.0 | 0.0 | 0.00 | 6.00 | 2.25 | 95 | 1009.2 |
| 20260505000216 | 55 | 294 | 0.0 | 0.0 | 1.80 | 6.00 | 2.25 | 95 | 1009.2 |
| 20260504235715 | 55 | 340 | 0.0 | 0.0 | 1.80 | 6.00 | 2.25 | 95 | 1009.4 |
| 20260504235215 | 55 | 353 | 0.0 | 0.0 | 0.00 | 5.70 | 2.22 | 95 | 1008.9 |
| 20260504234715 | 55 | 283 | 0.0 | 0.0 | 0.00 | 5.70 | 2.22 | 95 | 1009.0 |
| 20260504234215 | 55 | 305 | 0.0 | 0.0 | 1.80 | 5.70 | 2.22 | 95 | 1009.2 |
| 20260504233715 | 55 | 295 | 0.0 | 0.0 | 1.80 | 5.70 | 2.22 | 94 | 1009.4 |
| 20260504233215 | 55 | 327 | 0.0 | 0.0 | 1.80 | 5.40 | 2.19 | 94 | 1009.3 |
| 20260504232715 | 55 | 271 | 0.0 | 0.0 | 0.00 | 5.09 | 2.16 | 94 | 1009.3 |
| 20260504232215 | 55 | 32 | 0.0 | 0.0 | 1.80 | 5.09 | 2.16 | 94 | 1009.3 |
| 20260504231715 | 55 | 3 | 4.3 | 13.0 | 1.80 | 5.09 | 2.16 | 94 | 1009.2 |
| 20260504231215 | 55 | 283 | 0.0 | 0.0 | 1.80 | 4.80 | 2.13 | 94 | 1009.4 |
| 20260504230715 | 55 | 20 | 1.7 | 6.1 | 3.60 | 4.80 | 2.13 | 94 | 1009.5 |
| 20260504230215 | 55 | 199 | 0.0 | 6.1 | 3.60 | 4.50 | 2.10 | 94 | 1009.5 |
| 20260504225715 | 55 | 24 | 0.0 | 0.0 | 3.60 | 4.20 | 2.07 | 94 | 1009.5 |
| 20260504225215 | 55 | 254 | 0.0 | 0.0 | 3.60 | 3.90 | 2.03 | 94 | 1009.5 |
| 20260504224715 | 55 | 298 | 0.0 | 6.1 | 5.40 | 3.60 | 2.01 | 94 | 1009.5 |
| 20260504224214 | 55 | 285 | 0.0 | 0.0 | 3.60 | 3.00 | 1.95 | 94 | 1009.6 |
| 20260504223715 | 55 | 281 | 0.0 | 0.0 | 5.40 | 2.70 | 1.92 | 94 | 1009.8 |
| 20260504223214 | 55 | 281 | 0.0 | 0.0 | 5.40 | 2.40 | 1.88 | 94 | 1010.0 |
| 20260504222714 | 55 | 247 | 0.0 | 0.0 | 3.60 | 1.80 | 1.83 | 94 | 1009.9 |
| 20260504222214 | 55 | 330 | 0.0 | 6.1 | 5.40 | 1.50 | 1.80 | 94 | 1009.7 |
| 20260504221714 | 55 | 287 | 0.0 | 6.1 | 5.40 | 1.20 | 1.77 | 94 | 1009.6 |
| 20260504221214 | 55 | 283 | 0.0 | 0.0 | 3.60 | 0.60 | 1.71 | 93 | 1010.0 |
| 20260504220714 | 55 | 282 | 0.0 | 6.1 | 3.60 | 0.30 | 1.68 | 93 | 1009.9 |
| 20260504220214 | 55 | 332 | 7.0 | 13.0 | 5.40 | 0.00 | 1.65 | 93 | 1010.1 |
| 20260504215714 | 55 | 253 | 0.0 | 6.1 | 3.60 | 1.59 | 1.59 | 93 | 1010.1 |
| 20260504215214 | 55 | 50 | 1.7 | 6.1 | 1.80 | 1.56 | 1.56 | 93 | 1010.3 |
| 20260504214714 | 55 | 327 | 0.0 | 0.0 | 3.60 | 1.53 | 1.53 | 93 | 1010.2 |
| 20260504214214 | 54 | 261 | 0.0 | 0.0 | 5.40 | 1.50 | 1.50 | 92 | 1010.5 |
| 20260504213714 | 54 | 257 | 0.0 | 6.1 | 7.20 | 1.47 | 1.47 | 92 | 1010.3 |
| 20260504213214 | 54 | 275 | 0.0 | 0.0 | 1.80 | 1.38 | 1.38 | 92 | 1010.5 |
| 20260504212714 | 54 | 67 | 1.7 | 6.1 | 0.00 | 1.35 | 1.35 | 92 | 1010.5 |
| 20260504212214 | 54 | 285 | 0.0 | 0.0 | 0.00 | 1.35 | 1.35 | 92 | 1010.5 |
| 20260504211714 | 54 | 47 | 0.0 | 6.1 | 0.00 | 1.35 | 1.35 | 91 | 1010.4 |
| 20260504211213 | 54 | 275 | 1.7 | 6.1 | 0.00 | 1.35 | 1.35 | 91 | 1010.4 |
| 20260504210713 | 54 | 314 | 0.0 | 0.0 | 0.00 | 1.35 | 1.35 | 91 | 1010.3 |
| 20260504210213 | 53 | 346 | 0.0 | 0.0 | 0.00 | 1.35 | 1.35 | 92 | 1010.5 |
| 20260504205713 | 53 | 52 | 0.0 | 0.0 | 0.00 | 1.35 | 1.35 | 92 | 1010.4 |
| 20260504205213 | 53 | 43 | 0.0 | 0.0 | 0.00 | 1.35 | 1.35 | 92 | 1010.7 |
| 20260504204713 | 53 | 250 | 0.0 | 0.0 | 0.00 | 1.35 | 1.35 | 92 | 1010.5 |
| 20260504204213 | 53 | 231 | 3.5 | 13.0 | 0.00 | 1.35 | 1.35 | 92 | 1010.6 |
| 20260504203713 | 54 | 297 | 0.0 | 0.0 | 0.00 | 1.35 | 1.35 | 92 | 1010.5 |
| 20260504203213 | 54 | 43 | 0.0 | 0.0 | 0.00 | 1.35 | 1.35 | 92 | 1010.6 |
| 20260504202713 | 54 | 97 | 0.0 | 0.0 | 0.00 | 1.35 | 1.35 | 93 | 1010.7 |
| 20260504202213 | 54 | 251 | 0.0 | 0.0 | 0.00 | 1.35 | 1.35 | 93 | 1010.6 |
| 20260504201713 | 54 | 13 | 2.6 | 6.1 | 0.00 | 1.35 | 1.35 | 93 | 1010.7 |
| 20260504201213 | 54 | 216 | 0.0 | 0.0 | 0.00 | 1.35 | 1.35 | 93 | 1010.6 |
| 20260504200713 | 54 | 268 | 0.0 | 6.1 | 0.00 | 1.35 | 1.35 | 93 | 1010.6 |
| 20260504200212 | 54 | 340 | 0.9 | 6.1 | 0.00 | 1.35 | 1.35 | 93 | 1010.9 |
| 20260504195712 | 53 | 173 | 0.0 | 6.1 | 0.00 | 1.35 | 1.35 | 94 | 1010.7 |
| 20260504195212 | 53 | 219 | 0.0 | 0.0 | 0.00 | 1.35 | 1.35 | 94 | 1010.7 |
| 20260504194712 | 53 | 305 | 0.0 | 0.0 | 0.00 | 1.35 | 1.35 | 94 | 1010.8 |
| 20260504194212 | 53 | 293 | 0.0 | 6.1 | 0.00 | 1.35 | 1.35 | 94 | 1010.8 |
| 20260504193712 | 53 | 340 | 0.0 | 0.0 | 0.00 | 1.35 | 1.35 | 94 | 1010.8 |
| 20260504193212 | 53 | 249 | 0.0 | 6.1 | 0.00 | 1.35 | 1.35 | 94 | 1010.8 |
| 20260504192712 | 53 | 263 | 0.0 | 0.0 | 0.00 | 1.35 | 1.35 | 93 | 1010.8 |
| 20260504192212 | 53 | 298 | 0.0 | 6.1 | 0.00 | 1.35 | 1.35 | 93 | 1010.7 |
| 20260504191712 | 53 | 298 | 0.0 | 6.1 | 0.00 | 1.35 | 1.35 | 93 | 1010.7 |
| 20260504191212 | 53 | 279 | 0.0 | 0.0 | 0.00 | 1.35 | 1.35 | 93 | 1010.9 |
| 20260504190712 | 53 | 278 | 0.0 | 0.0 | 0.00 | 1.35 | 1.35 | 93 | 1010.9 |
| 20260504190212 | 53 | 306 | 0.0 | 0.0 | 3.60 | 1.35 | 1.35 | 93 | 1010.9 |
| 20260504185712 | 53 | 267 | 0.0 | 0.0 | 5.40 | 1.35 | 1.35 | 93 | 1010.8 |
| 20260504185212 | 53 | 322 | 0.0 | 0.0 | 5.40 | 1.29 | 1.29 | 93 | 1011.1 |
| 20260504184712 | 54 | 286 | 0.0 | 0.0 | 7.20 | 1.26 | 1.26 | 93 | 1011.1 |
| 20260504184212 | 54 | 322 | 0.0 | 0.0 | 5.40 | 1.20 | 1.20 | 93 | 1011.0 |
| 20260504183712 | 54 | 4 | 0.0 | 6.1 | 3.60 | 1.14 | 1.14 | 93 | 1011.1 |
| 20260504183211 | 55 | 238 | 0.0 | 0.0 | 3.60 | 1.11 | 1.11 | 93 | 1011.1 |
| 20260504182711 | 55 | 22 | 0.0 | 6.1 | 1.80 | 1.05 | 1.05 | 93 | 1011.2 |
| 20260504182211 | 55 | 253 | 0.0 | 6.1 | 5.40 | 1.05 | 1.05 | 93 | 1011.0 |
| 20260504181711 | 55 | 280 | 0.0 | 0.0 | 3.60 | 1.01 | 1.01 | 93 | 1011.0 |
| 20260504181211 | 55 | 283 | 0.0 | 0.0 | 0.00 | 9.60 | 9.60 | 93 | 1011.3 |
| 20260504180711 | 55 | 278 | 0.0 | 0.0 | 0.00 | 9.60 | 9.60 | 93 | 1011.3 |
| 20260504180211 | 55 | 226 | 0.0 | 0.0 | 0.00 | 9.60 | 9.60 | 93 | 1011.5 |
| 20260504175711 | 55 | 266 | 0.0 | 0.0 | 0.00 | 9.60 | 9.60 | 93 | 1011.4 |
| 20260504175211 | 55 | 268 | 0.0 | 0.0 | 1.80 | 9.60 | 9.60 | 93 | 1011.3 |
| 20260504174711 | 55 | 25 | 1.7 | 6.1 | 1.80 | 9.60 | 9.60 | 93 | 1011.2 |
| 20260504174211 | 55 | 21 | 0.0 | 0.0 | 0.00 | 9.30 | 9.30 | 93 | 1011.3 |
| 20260504173711 | 55 | 293 | 0.0 | 6.1 | 0.00 | 9.30 | 9.30 | 93 | 1011.3 |
| 20260504173211 | 55 | 355 | 0.0 | 0.0 | 0.00 | 9.30 | 9.30 | 93 | 1011.2 |
| 20260504172711 | 55 | 262 | 0.0 | 0.0 | 0.00 | 9.30 | 9.30 | 93 | 1011.4 |
| 20260504172211 | 55 | 8 | 0.0 | 0.0 | 0.00 | 9.30 | 9.30 | 93 | 1011.3 |
| 20260504171711 | 55 | 325 | 0.0 | 0.0 | 0.00 | 9.30 | 9.30 | 93 | 1011.2 |
| 20260504171211 | 56 | 8 | 0.0 | 0.0 | 0.00 | 9.30 | 9.30 | 93 | 1011.3 |
| 20260504170710 | 56 | 272 | 0.0 | 0.0 | 0.00 | 9.30 | 9.30 | 93 | 1011.3 |
| 20260504170210 | 56 | 269 | 0.0 | 0.0 | 0.00 | 9.30 | 9.30 | 93 | 1011.4 |
| 20260504160210 | 57 | 280 | 0.0 | 0.0 | 0.00 | 9.00 | 9.00 | 93 | 1011.7 |